Regional Weather Roundup
Issued by NWS San Angelo, TX

Home | Current Version | Previous Version | Text Only | Print | Product List | Glossary On
Versions: 1 2 3 4 5 6 7 8 9 10 11 12 13 14 15 16 17 18 19 20 21 22 23 24 25 26 27 28 29 30 31 32 33 34 35 36 37 38 39 40 41 42 43 44 45 46 47 48 49 50
000
ASUS44 KSJT 270110
RWRSJT
WEST CENTRAL TEXAS REGIONAL WEATHER ROUNDUP
NATIONAL WEATHER SERVICE SAN ANGELO TX
800 PM CDT THU APR 26 2018

NOTE: "FAIR" INDICATES FEW OR NO CLOUDS BELOW 12,000 FEET WITH NO
SIGNIFICANT WEATHER AND/OR OBSTRUCTIONS TO VISIBILITY.

TXZ049-054-064>066-071>073-076>078-098-099-113-114-127-128-139-140-
154-155-168>170-270200
...LOCATIONS ACROSS WEST CENTRAL TEXAS...

CITY           SKY/WX    TMP DP  RH WIND       PRES   REMARKS
SAN ANGELO     CLOUDY    76  44  32 NE8       29.91R
ABILENE        CLEAR     70  40  33 S6        29.94F
DYESS AFB      CLEAR     70  35  27 SE9       29.93F
JUNCTION       CLEAR     76  50  40 S5        29.91R
SWEETWATER     CLEAR     71  39  31 E9        29.96S
BROWNWOOD      CLEAR     73  37  27 NE8       29.95R
COLEMAN        CLEAR     73  39  28 N6        29.95R
SONORA         PTCLDY    77  50  38 SE3       29.95R
OZONA          FAIR      77  45  31 S14       29.93R
BRADY          CLOUDY    73  41  31 E6        29.95R
$$

TEXAS PANHANDLE/OKLAHOMA PANHANDLE

CITY           SKY/WX    TMP DP  RH WIND       PRES   REMARKS
AMARILLO       CLEAR     60  33  36 N20G28    30.11R
BORGER         CLEAR     63  35  35 N25G36    30.09R
CANADIAN       PTCLDY    58  50  74 E5        30.07R
DALHART        FAIR      61  25  25 N22G31    30.16R
DUMAS          CLEAR     60  34  37 N21       30.13R
GUYMON         NOT AVBL
HEREFORD       CLEAR     64  32  30 N20G28    30.13R
PAMPA          CLEAR     62  37  39 N20G26    30.10R
PERRYTON       CLEAR     64  39  39 N17G29    30.07R
$$

SOUTHERN PANHANDLE/SOUTH PLAINS/ROLLING PLAINS

CITY           SKY/WX    TMP DP  RH WIND       PRES   REMARKS
LUBBOCK        PTCLDY    68  30  24 N23G37    30.03R
SNYDER         CLEAR     76  36  23 E6        29.93S
CHILDRESS      PTCLDY    73  41  31 E15G23    29.94R
SEMINOLE       CLOUDY    72  28  19 N20G26    30.04R
$$

PERMIAN BASIN

CITY           SKY/WX    TMP DP  RH WIND       PRES   REMARKS
MIDLAND        MOCLDY    79  35  20 N26G37    29.93R
ODESSA         CLOUDY    78  31  17 NE23G33   29.95R
WINK           CLOUDY    80  28  15 N33       29.92R
$$

FAR WEST/SOUTHWEST MOUNTAINS/TRANS PECOS

CITY           SKY/WX    TMP DP  RH WIND       PRES   REMARKS
ALPINE         CLEAR     80  25  13 NW7G17    30.04R
DRYDEN           N/A     80  48  32 E13       29.85R
EL PASO        MOCLDY    84  22  10 CALM      29.95S
FORT STOCKTON  CLOUDY    82  28  14 NE12      29.90R
GUADALUPE PASS PTCLDY    71  23  16 NE37G43   30.08R
MARFA          CLOUDY    78  27  15 NW10      30.03R
PECOS          CLOUDY    87  26  11 N22G35    29.89R
$$

DALLAS/FORT WORTH METROPLEX

CITY           SKY/WX    TMP DP  RH WIND       PRES   REMARKS
DFW AIRPORT    CLOUDY    66  46  48 E5        29.95R
FTW MEACHAM    CLOUDY    71  48  43 NE7       29.96R
DAL-EXECUTIVE  CLEAR     69  45  41 N6        29.96R
GRAND PRAIRIE  CLEAR     68  45  42 NE8       29.98R
ADDISON        CLEAR     68  46  45 N6        29.97S
MESQUITE       CLEAR     66  46  48 N5        29.97R
LANCASTER      CLEAR     67  48  50 E3        29.97S
$$

NORTH CENTRAL TEXAS

CITY           SKY/WX    TMP DP  RH WIND       PRES   REMARKS
SHRMAN/DENISON MOCLDY    64  48  55 CALM      29.98F
GAINESVILLE    PTCLDY    66  46  48 CALM      29.99R
BRIDGEPORT     CLOUDY    66  48  51 CALM      29.98S
DENTON         PTCLDY    65  50  58 NE6       29.96S
WAXAHACHIE     CLEAR     66  48  51 CALM      29.98R
GRANBURY       CLEAR     71  48  44 NE5       29.98R
$$

WESTERN NORTH TEXAS

CITY           SKY/WX    TMP DP  RH WIND       PRES   REMARKS
WICHITA FALLS  PTCLDY    65  46  50 E9        29.94F
VERNON         CLEAR     70  46  41 E12       29.94R
BRECKENRIDGE   CLEAR     73  43  34 E9        29.94S
COMANCHE       CLEAR     71  41  34 N5        29.96R
$$

CENTRAL AND SOUTH CENTRAL TEXAS

CITY           SKY/WX    TMP DP  RH WIND       PRES   REMARKS
AUSTIN/BERGSTM MOCLDY    69  51  52 E5        29.92R
WACO           CLEAR     69  45  41 NE7       29.94R
HILLSBORO      CLEAR     64  51  61 NE6       29.95S
TEMPLE         CLEAR     68  45  43 E9        29.93
KILLEEN-GRAY   CLEAR     72  41  33 NE6       29.94R
FORT HOOD      CLEAR     71  44  37 E6        29.90R
GEORGETOWN     CLEAR     70  47  43 E5        29.95R
LAGO VISTA     FAIR      70  48  44 SE5       29.95R
SAN MARCOS     CLEAR     68  53  58 SE7       29.93R
NEW BRAUNFELS  CLEAR     66  52  60 SE7       29.91S
RANDOLPH AFB   CLEAR     67  54  63 SE5       29.92R
SAN ANTONIO    MOCLDY    69  51  52 SE8       29.92R
STINSON        CLEAR     71  56  58 S5        29.90S
PLEASANTON     NOT AVBL
LA GRANGE      PTCLDY    70  58  66 CALM      29.91S
GIDDINGS       CLOUDY    67  54  63 CALM      29.93F
$$

EAST TEXAS

CITY           SKY/WX    TMP DP  RH WIND       PRES   REMARKS
PARIS          CLEAR     60  50  69 N7        29.99R
CLARKSVILLE    NOT AVBL
TYLER          PTCLDY    66  49  54 N5        29.95R
LONGVIEW       PTCLDY    64  53  67 N3        29.94S
PALESTINE      CLEAR     64  52  63 N3        29.96S
NACOGDOCHES      N/A     63  52  67 NE3       29.95S
$$

TEXAS HILL COUNTRY AND EDWARDS PLATEAU

CITY           SKY/WX    TMP DP  RH WIND       PRES   REMARKS
LLANO          CLEAR     72  46  40 CALM      29.96
HORSESHOE BAY  FAIR      73  46  37 E3        29.93R
KERRVILLE      CLEAR     69  54  58 S5        29.93S
FREDERICKSBRG  CLEAR     71  47  42 SE3       29.94R
ROCKSPRINGS    CLOUDY    70  52  52 SE7G14    29.97R
HONDO          PTCLDY    71  57  61 SE7       29.92R
UVALDE         PTCLDY    72  54  52 E9        29.91R
DEL RIO        PTCLDY    80  53  39 SE13      29.84R
$$

SOUTHEAST TEXAS

CITY           SKY/WX    TMP DP  RH WIND       PRES   REMARKS
COLLEGE STN    CLEAR     69  47  45 N5        29.93S
CALDWELL       CLEAR     69  47  45 N3        29.94R
CROCKETT       CLEAR     63  54  72 NE3       29.97R
BRENHAM        CLEAR     69  51  53 CALM      29.94S
HUNTSVILLE     CLEAR     67  51  56 CALM      29.93F
CONROE         CLEAR     64  56  75 CALM      29.93S
HOUSTON BUSH   FAIR      70  49  47 VRB5      29.92S
HOUSTON HOBBY  FAIR      71  46  40 N10       29.91R
PERLAND        FAIR      71  49  45 CALM      29.93R
WHARTON        CLEAR     69  46  43 N3        29.93S
$$

THE UPPER TEXAS COAST

CITY           SKY/WX    TMP DP  RH WIND       PRES   REMARKS
ORANGE         FAIR      67  53  61 CALM      29.93S
PORT ARTHUR    FAIR      69  49  48 N7        29.91S
GALVESTON      FAIR      67  56  67 SW7       29.93R
ANGLETON       FAIR      66  56  70 S7        29.92R
BAY CITY       FAIR      69  58  68 S5        29.93R
$$

TEXAS COASTAL BEND, RIO GRANDE PLAINS DEEP SOUTH TEXAS

CITY           SKY/WX    TMP DP  RH WIND       PRES   REMARKS
VICTORIA       PTCLDY    71  55  56 NE5       29.91F
BEEVILLE       FAIR      71  53  53 SE8       29.91R
ROCKPORT       CLEAR     67  50  54 SE7       29.92F
PORT ARANSAS   NOT AVBL
PORT LAVACA    CLEAR     68  55  61 S6        29.92F
CORPUS CHRISTI PTCLDY    69  53  56 SE10      29.92F
KINGSVILLE NAS PTCLDY    69  57  65 E9        29.92S
COTULLA        CLEAR     75  58  55 S6        29.89R
LAREDO         CLEAR     75  60  59 S9        29.89S
BROWNSVILLE    CLOUDY    73  65  75 E7        29.93S
PORT ISABEL    FAIR      71  62  73 E6        29.92S
HEBBRONVILLE   CLEAR     73  57  55 S5        29.91S
MCALLEN        CLOUDY    77  64  64 SE9       29.92R
WESLACO        MOCLDY    73  63  68 S7        29.91R
FALFURRIAS     CLEAR     73  56  55 E9        29.91R
EDINBURG       CLOUDY    76  62  59 SE3       29.91S
$$




USA.gov is the U.S. government's official web portal to all federal, state and local government web resources and services.